Notices

What's New in latest Release from April 7th, 2021:

- Updated Glossary, including Speed of Maximum Gust, and Total Hourly Precipitation

- Updated national and regional climate services offices contacts and prices information

- Addition of station inventory lists for 1981-2010, 1971-2000, and 1961-1990 Normals.

Please note that as of June 10, 2021 UTC dates are available for all years 2004-present, and DBA is working on populating the remaining years (2003 to 1953).

If you haven't already, please take our survey and provide feedback about our website: https://eccc.sondage-survey.ca/f/LanguageSelection.aspx?s=442ca660-fcf1-47c0-95a9-59707d6fd709

Hourly Data Report for September 25, 2017

TORONTO CITY
ONTARIO

43°40'00.000" N
79°24'00.000" W
112.50 m
6158355
71508
XTO

Download Data

Hourly Data (September 2017)
Hourly Data Report for September 25, 2017
TIME
LST
Temp Definition
°C
Dew Point Definition
°C
Rel Hum Definition
%
Precip. Amount Definition
mm

Wind Dir Definition
10's deg

Wind Spd Definition
km/h
Visibility Definition
km
Stn Press Definition
kPa
Hmdx Definition


Wind Chill Definition


Weather Definition


00:00 23.5 18.2 72 0.0 LegendMM LegendMM   100.52 30   LegendNANA
01:00 23.5 17.8 71 0.0 LegendMM LegendMM   100.51 29   LegendNANA
02:00 22.9 17.4 71 0.0 LegendMM LegendMM   100.49 28   LegendNANA
03:00 22.7 17.4 72 0.0 LegendMM LegendMM   100.46 28   LegendNANA
04:00 22.1 17.4 74 0.0 LegendMM LegendMM   100.47 28   LegendNANA
05:00 21.6 17.3 77 0.0 LegendMM LegendMM   100.49 27   LegendNANA
06:00 21.1 17.7 81 0.0 LegendMM LegendMM   100.52 27   LegendNANA
07:00 22.2 18.9 81 0.0 LegendMM LegendMM   100.54 29   LegendNANA
08:00 25.0 19.4 71 0.0 LegendMM LegendMM   100.55 32   LegendNANA
09:00 27.9 17.5 53 0.0 LegendMM LegendMM   100.58 34   LegendNANA
10:00 28.6 17.9 53 0.0 LegendMM LegendMM   100.57 35   LegendNANA
11:00 29.6 17.7 49 0.0 LegendMM LegendMM   100.57 35   LegendNANA
12:00 30.0 16.2 44 0.0 LegendMM LegendMM   100.55 35   LegendNANA
13:00 30.5 15.8 41 0.0 LegendMM LegendMM   100.49 35   LegendNANA
14:00 31.1 15.8 40 0.0 LegendMM LegendMM   100.41 36   LegendNANA
15:00 30.2 16.8 44 0.0 LegendMM LegendMM   100.35 35   LegendNANA
16:00 29.3 16.7 47 0.0 LegendMM LegendMM   100.31 34   LegendNANA
17:00 28.2 16.4 49 0.0 LegendMM LegendMM   100.28 33   LegendNANA
18:00 27.8 16.7 51 0.0 LegendMM LegendMM   100.27 33   LegendNANA
19:00 26.5 16.4 54 0.0 LegendMM LegendMM   100.26 31   LegendNANA
20:00 25.6 17.8 62 0.0 LegendMM LegendMM   100.27 31   LegendNANA
21:00 25.2 17.8 63 0.0 LegendMM LegendMM   100.26 31   LegendNANA
22:00 24.8 17.8 65 0.0 LegendMM LegendMM   100.25 31   LegendNANA
23:00 23.9 18.1 70 0.0 LegendMM LegendMM   100.24 30   LegendNANA

Notes on Data Quality.

Legend

  • E = Estimated
  • M = Missing
  • NA = Not Available*
  • [empty] = Indicates an unobserved value
Date modified: